Terug naar catalogus

FENGYUN 1C DEB

ActiefSSO
NORAD 30198·DEBRIS·🇨🇳 China

Gelanceerd May 10, 1999 vanaf Taiyuan Satellite Launch Center

Loading…

Volgende Passages (komende 24 uur)

TLE

VersSource: Space-Track

Epoch: Sep 14, 2026, 08:24 UTC

1 30198U 99025VF  26257.35066359  .00003103  00000-0  70785-3 0  9992
2 30198  98.4788  35.5283 0102786  76.2441 313.9872 14.53310393 24945

Volg FENGYUN 1C DEB in realtime met AllMySat

Download on the App Store